STARLINK-5460 (55671 NORAD) Tracking and Keplerian Element Data

This shows tracking and keplerian element data for the satellite.

Feedback or suggestion? Click here.




ElementValue
Catalog55671
NameSTARLINK-5460
Epoch Orbit625
Epoch Day85.16841517
Epoch Year2023
RAAN47.5826
Inclination70.0026
Eccentricity0.0002969
Argument of Perigee260.1913
Mean Anonmoly99.8948
Mean Motion15.69931702
Decay Rate-4.356E-05
L11 55671U 23021AV 23085.16841517 -.00004356 00000+0 -34473-4 0 9997
L22 55671 70.0026 47.5826 0002969 260.1913 99.8948 15.69931702 6254



Live tracking and technical data element details for STARLINK-5460 (NORAD 55671). STARLINK-5460 can be tracked NOW for your location showing map with azimuth and elevation plus other details from your city location.







IsCatalogInMostPopularTable: catalog: 55671, numindb: 2
Update: records affected: 1



GetName: 55671 STARLINK-5460

Hit Count: updated at: Tue, 28 Mar 2023 02:10:40 GMT